Granite Falls, MN

12:41 PM CST on February 19, 2018 (GMT -0600)
Granite Falls

Weather History for KGDB - May, 2013

Change the Weather History Date:

Saturday, May 11, 2013

  Actual Average (KMVE) Record (KMVE)
Temperature  
Mean Temperature 44 °F -  
Max Temperature 52 °F 70 °F 92 °F (1987)
Min Temperature 37 °F 45 °F 31 °F (1960)
Degree Days  
Heating Degree Days 20    
Moisture  
Dew Point 24 °F    
Average Humidity 48    
Maximum Humidity 78    
Minimum Humidity 24    
Precipitation  
Precipitation 0.01 in - - ()
Sea Level Pressure  
Sea Level Pressure 30.20 in    
Wind  
Wind Speed 17 mph (NW)    
Max Wind Speed 32 mph    
Max Gust Speed 40 mph    
Visibility 10 miles    
Events      
Averages and records for this station are not official NWS values.
T = Trace of Precipitation, MM = Missing Value Source: NWS Daily Summary

Daily Weather History Graph

Daily Weather History Graph

Search for Another Location

Airport or City:

Trip Planner

Search our weather history database for the weather conditions in past years. The results will help you decide how hot, cold, wet, or windy it might be!

Date:

Astronomy

May. 11, 2013 Rise Set
Actual Time 5:58 AM CDT 8:39 PM CDT
Civil Twilight 5:24 AM CDT 9:13 PM CDT
Nautical Twilight 4:42 AM CDT 9:55 PM CDT
Astronomical Twilight 3:54 AM CDT 10:44 PM CDT
Moon 7:05 AM CDT (5/11) 10:22 PM CDT (5/11)
Length of Visible Light 15h 48m
Length of Day
14h 41m
Waxing Crescent, 3% of the Moon is Illuminated
May 11
Waxing Crescent
May 17
First Quarter
May 24
Full
May 31
Last Quarter
Jun 8
New

Hourly Weather History & Observations

Time (CDT) Temp. Windchill Dew Point Humidity Pressure Visibility Wind Dir Wind Speed Gust Speed Precip Events Conditions
12:12 AM 48.2 °F - 34.7 °F 60% 30.06 in 10.0 mi NW 16.1 mph 21.9 mph N/A   Clear
12:33 AM 47.3 °F - 34.7 °F 62% 30.06 in 10.0 mi NW 15.0 mph 19.6 mph N/A   Clear
12:53 AM 46.4 °F 41.1 °F 34.7 °F 64% 30.07 in 10.0 mi NW 11.5 mph 18.4 mph N/A   Clear
1:13 AM 45.0 °F 38.5 °F 34.9 °F 68% 30.08 in 10.0 mi WNW 13.8 mph - N/A   Clear
1:32 AM 43.7 °F 36.9 °F 34.3 °F 70% 30.09 in 10.0 mi WNW 13.8 mph - N/A   Clear
1:53 AM 42.8 °F 36.2 °F 33.8 °F 70% 30.11 in 10.0 mi WNW 12.7 mph - N/A   Clear
2:13 AM 41.0 °F 34.7 °F 34.2 °F 77% 30.11 in 10.0 mi West 10.4 mph - N/A   Clear
2:33 AM 40.5 °F 33.2 °F 34.0 °F 78% 30.11 in 10.0 mi WNW 12.7 mph - N/A   Clear
2:53 AM 41.5 °F 33.5 °F 33.8 °F 74% 30.12 in 10.0 mi WNW 16.1 mph 23.0 mph N/A   Clear
3:12 AM 40.6 °F 33.0 °F 33.3 °F 75% 30.12 in 10.0 mi WNW 13.8 mph - N/A   Clear
3:33 AM 40.3 °F 32.6 °F 32.9 °F 75% 30.13 in 10.0 mi WNW 13.8 mph 20.7 mph N/A   Clear
3:53 AM 40.1 °F 32.4 °F 32.5 °F 74% 30.14 in 10.0 mi WNW 13.8 mph - N/A   Clear
4:12 AM 39.7 °F 31.5 °F 32.0 °F 74% 30.14 in 10.0 mi WNW 15.0 mph - N/A   Clear
4:33 AM 39.2 °F 31.6 °F 31.6 °F 74% 30.15 in 10.0 mi WNW 12.7 mph - N/A   Clear
4:53 AM 38.7 °F 30.5 °F 31.1 °F 74% 30.15 in 10.0 mi WNW 13.8 mph - N/A   Clear
5:13 AM 38.3 °F 30.1 °F 30.7 °F 74% 30.15 in 10.0 mi WNW 13.8 mph - N/A   Clear
5:32 AM 38.3 °F 29.7 °F 30.6 °F 74% 30.17 in 10.0 mi WNW 15.0 mph - N/A   Scattered Clouds
5:53 AM 37.6 °F 30.0 °F 29.7 °F 73% 30.16 in 10.0 mi WNW 11.5 mph - N/A   Scattered Clouds
6:13 AM 37.4 °F 28.9 °F 28.9 °F 71% 30.17 in 10.0 mi WNW 13.8 mph 19.6 mph N/A   Clear
6:32 AM 37.2 °F 28.3 °F 28.4 °F 70% 30.18 in 10.0 mi NW 15.0 mph - N/A   Clear
6:53 AM 38.3 °F 28.4 °F 29.1 °F 70% 30.20 in 10.0 mi NW 19.6 mph 23.0 mph N/A   Clear
7:13 AM 39.2 °F 29.8 °F 29.3 °F 68% 30.20 in 10.0 mi NW 18.4 mph 23.0 mph N/A   Clear
7:33 AM 39.7 °F 30.3 °F 30.2 °F 69% 30.21 in 10.0 mi NW 19.6 mph 24.2 mph N/A   Clear
7:53 AM 40.3 °F 30.2 °F 30.2 °F 67% 30.21 in 10.0 mi NW 23.0 mph 26.5 mph N/A   Clear
8:13 AM 40.5 °F 30.7 °F 30.6 °F 68% 30.22 in 10.0 mi NW 21.9 mph 26.5 mph N/A   Clear
8:33 AM 41.0 °F 31.4 °F 30.0 °F 65% 30.22 in 10.0 mi NW 21.9 mph 33.4 mph N/A   Clear
8:52 AM 41.2 °F 31.6 °F 30.6 °F 66% 30.23 in 10.0 mi NW 21.9 mph 31.1 mph N/A   Clear
9:13 AM 42.3 °F 32.4 °F 29.7 °F 61% 30.23 in 10.0 mi NW 25.3 mph 32.2 mph N/A   Scattered Clouds
9:33 AM 42.6 °F 33.3 °F 29.5 °F 60% 30.24 in 10.0 mi NW 23.0 mph 33.4 mph N/A   Scattered Clouds
9:53 AM 42.8 °F 33.8 °F 27.3 °F 54% 30.24 in 10.0 mi NNW 21.9 mph 36.8 mph N/A   Scattered Clouds
10:13 AM 43.5 °F 34.3 °F 25.3 °F 49% 30.25 in 10.0 mi NW 24.2 mph 34.5 mph N/A   Scattered Clouds
10:32 AM 44.8 °F 35.3 °F 24.1 °F 44% 30.25 in 10.0 mi NW 27.6 mph 36.8 mph N/A   Clear
10:53 AM 45.1 °F 35.3 °F 21.9 °F 40% 30.25 in 10.0 mi NW 31.1 mph 40.3 mph N/A   Scattered Clouds
11:12 AM 45.9 °F 36.8 °F 21.6 °F 38% 30.25 in 10.0 mi NW 27.6 mph 35.7 mph N/A   Scattered Clouds
11:33 AM 46.6 °F - 21.6 °F 37% 30.25 in 10.0 mi NW 24.2 mph 38.0 mph N/A   Scattered Clouds
11:53 AM 46.9 °F - 21.9 °F 37% 30.26 in 10.0 mi WNW 29.9 mph 36.8 mph N/A   Scattered Clouds
12:33 PM 48.7 °F - 21.7 °F 35% 30.25 in 10.0 mi NW 24.2 mph 38.0 mph N/A   Scattered Clouds
12:53 PM 48.7 °F - 19.8 °F 32% 30.25 in 10.0 mi NW 25.3 mph 34.5 mph N/A   Scattered Clouds
1:12 PM 48.7 °F - 19.2 °F 31% 30.25 in 10.0 mi NW 25.3 mph 33.4 mph N/A   Scattered Clouds
1:33 PM 49.6 °F - 19.2 °F 30% 30.25 in 10.0 mi NW 25.3 mph 36.8 mph N/A   Clear
1:53 PM 49.8 °F - 19.6 °F 30% 30.25 in 10.0 mi NW 19.6 mph 36.8 mph N/A   Clear
2:13 PM 50.0 °F - 19.2 °F 30% 30.25 in 10.0 mi NW 24.2 mph 38.0 mph N/A   Clear
2:32 PM 52.2 °F - 19.8 °F 28% 30.24 in 10.0 mi NW 23.0 mph 33.4 mph N/A   Clear
2:53 PM 51.1 °F - 19.6 °F 29% 30.24 in 10.0 mi NW 23.0 mph 32.2 mph N/A   Scattered Clouds
3:12 PM 51.6 °F - 19.2 °F 28% 30.24 in 10.0 mi NW 21.9 mph 34.5 mph N/A   Clear
3:33 PM 52.2 °F - 19.0 °F 27% 30.23 in 10.0 mi WNW 28.8 mph 40.3 mph N/A   Scattered Clouds
3:53 PM 52.2 °F - 18.5 °F 27% 30.23 in 10.0 mi NW 32.2 mph 38.0 mph N/A   Clear
4:13 PM 52.3 °F - 18.0 °F 26% 30.22 in 10.0 mi NNW 24.2 mph 31.1 mph N/A   Clear
4:33 PM 52.3 °F - 17.6 °F 25% 30.22 in 10.0 mi NW 27.6 mph 35.7 mph N/A   Clear
4:52 PM 52.3 °F - 16.7 °F 24% 30.22 in 10.0 mi NNW 25.3 mph 36.8 mph N/A   Clear
5:13 PM 52.3 °F - 16.2 °F 24% 30.22 in 10.0 mi NW 23.0 mph 34.5 mph N/A   Clear
5:32 PM 52.3 °F - 17.4 °F 25% 30.22 in 10.0 mi NNW 24.2 mph 33.4 mph N/A   Clear
5:52 PM 52.3 °F - 17.1 °F 25% 30.22 in 10.0 mi NNW 18.4 mph 28.8 mph N/A   Clear
6:13 PM 52.3 °F - 17.2 °F 25% 30.22 in 10.0 mi NW 25.3 mph 32.2 mph N/A   Clear
6:33 PM 51.4 °F - 15.3 °F 24% 30.22 in 10.0 mi NW 19.6 mph 33.4 mph N/A   Clear
6:53 PM 51.3 °F - 17.1 °F 26% 30.21 in 10.0 mi NNW 18.4 mph 26.5 mph N/A   Clear
7:13 PM 50.7 °F - 17.8 °F 27% 30.21 in 10.0 mi NNW 19.6 mph 25.3 mph N/A   Clear
7:33 PM 50.0 °F - 16.9 °F 27% 30.21 in 10.0 mi NW 16.1 mph 26.5 mph N/A   Clear
7:52 PM 49.3 °F - 16.3 °F 27% 30.22 in 10.0 mi NW 16.1 mph 23.0 mph N/A   Clear
8:13 PM 48.2 °F - 16.9 °F 29% 30.22 in 10.0 mi NW 12.7 mph 20.7 mph N/A   Clear
8:33 PM 47.3 °F - 16.9 °F 30% 30.22 in 10.0 mi NNW 13.8 mph 19.6 mph N/A   Clear
8:52 PM 45.9 °F 40.8 °F 17.2 °F 32% 30.22 in 10.0 mi NNW 10.4 mph 17.3 mph N/A   Clear
9:13 PM 44.6 °F 40.2 °F 17.6 °F 34% 30.23 in 10.0 mi NNW 8.1 mph - N/A   Clear
9:33 PM 43.7 °F 38.1 °F 18.0 °F 36% 30.23 in 10.0 mi NNW 10.4 mph - N/A   Clear
9:53 PM 42.8 °F 37.5 °F 18.1 °F 37% 30.23 in 10.0 mi NW 9.2 mph - N/A   Clear
10:13 PM 42.8 °F 38.0 °F 17.8 °F 37% 30.23 in 10.0 mi NW 8.1 mph - N/A   Clear
10:32 PM 41.9 °F 36.9 °F 17.8 °F 38% 30.24 in 10.0 mi NNW 8.1 mph - N/A   Clear
10:53 PM 41.5 °F 36.4 °F 17.8 °F 38% 30.24 in 10.0 mi NW 8.1 mph - N/A   Clear
11:13 PM 40.5 °F 35.1 °F 17.8 °F 40% 30.24 in 10.0 mi NW 8.1 mph - N/A   Clear
11:33 PM 40.1 °F 34.7 °F 17.8 °F 41% 30.24 in 10.0 mi NW 8.1 mph - N/A   Clear
11:53 PM 39.2 °F 34.2 °F 18.5 °F 43% 30.25 in 10.0 mi NW 6.9 mph - N/A   Clear